Weather in Ustyug

Russia / Krasnoyarsk Krai     56°22′18″N   92°50′26″E
temp.,
°C
wind,
m/s
gust,
m/s
humid.,
%
clouds,
%
prec.,
mm/h
press.,
hPa
HPBL,
m
11 may, tue
tue1101:00+7wnw11765 0.0 102010
04:00+6n11811 0.0 102010
07:00+8ene12724 0.0 1019133
10:00+14e35510 0.0 1018797
13:00+17ene473320 0.0 10172573
16:00+18ene563080 0.0 10162650
19:00+16ne484199 0.0 1016426
22:00+11ne4116313 0.0 1018301
12 may, wed
wed1201:00+8ne48805 0.0 1019299
04:00+6ene378531 0.0 1020231
07:00+6ene45755 0.0 1021419
10:00+10ene445615 0.0 10201081
13:00+13ne44384 0.0 10181654
16:00+14ne44320 0.0 10171811
19:00+12ne44380 0.0 10171165
22:00+7e25560 0.0 1019102
13 may, thu
thu1301:00+6ese11580 0.0 101910
04:00+4e11600 0.0 101910
07:00+7ese12520 0.0 1019198
10:00+11ese35365 0.0 10181330
13:00+14ese342825 0.0 10161759
16:00+15ese33265 0.0 10151868
19:00+14se233218 0.0 1014332
22:00+9se23465 0.0 101438
14 may, fri
fri1401:00+7sse2251100 0.0 101217
04:00+6ssw2256100 0.0 101112
07:00+8ssw255188 0.0 1010183
10:00+14w4652100 0.0 10081416
13:00+7wsw4887100 3.6 1010590
16:00+9wnw5877100 0.8 1010948
19:00+5wnw7117712 0.9 10141073
22:00+3wnw6118033 0.0 1017917
15 may, sat
sat1501:00+2w512805 0.0 1019738
04:00+1wsw4108357 0.0 1020311
07:00+3wsw51169100 0.0 1020539
10:00+7wsw71055100 0.0 10191709
13:00+6wsw71075100 0.3 10171123
16:00+4wsw51295100 1.3 10151036
19:00+4wnw467624 0.6 1017879
22:00